Weather in Talitsa

Russia / Kirov Oblast     58°00′50″N   51°30′34″E
temp.,
°C
wind,
m/s
gust,
m/s
humid.,
%
clouds,
%
prec.,
mm/h
press.,
hPa
HPBL,
m
5 march, fri
fri500:00−8wnw81690100 0.1 989570
03:00−11wnw71393100 0.1 994396
06:00−15wnw51097100 0.0 997243
09:00−13nw589073 0.0 1000304
12:00−9wnw46860 0.0 1000480
15:00−7wsw588830 0.0 1001673
18:00−10wsw4896100 0.1 1002190
21:00−12w469698 0.3 100592
6 march, sat
sat600:00−15wnw349794 0.0 100637
03:00−18wnw349883 0.1 100857
06:00−21wnw34997 0.0 100933
09:00−17wnw359647 0.0 1010251
12:00−13w4589100 0.0 1011580
15:00−13w5688100 0.1 1011686
18:00−17wsw3495100 0.0 101142
21:00−17wsw3498100 0.1 101254
7 march, sun
sun700:00−19wsw339994 0.1 101131
03:00−20sw2310092 0.1 101124
06:00−21sw2310097 0.1 101123
09:00−17ssw349695 0.1 1010203
12:00−12ssw348696 0.0 1009501
15:00−11s358698 0.1 1007638
18:00−15sse4495100 0.0 100674
21:00−14sse51194100 0.0 1005284
8 march, mon
mon800:00−15se61195100 0.0 1002266
03:00−14se71294100 0.2 1000312
06:00−13se71294100 0.6 997487
09:00−12se71094100 1.3 995514
12:00−9se6993100 0.6 994605
15:00−6ssw5892100 1.4 995708
18:00−9sse2395100 0.3 99535
21:00−10ese2397100 0.8 99557
9 march, tue
tue900:00−12n229899 0.1 99625
03:00−14nnw349795 0.2 99766
06:00−14n3497100 0.1 99859
09:00−13nnw459599 0.1 1001245
12:00−10nnw349096 0.1 1004411
15:00−10nw349098 0.1 1006518
18:00−13nnw349698 0.1 100893
21:00−15nne359798 0.3 101088